Weather Service Report


406 
ASCA42 TJSJ 290510
RWRPR 
PUERTO RICO/U.S. VIRGIN ISLANDS HOURLY WEATHER ROUNDUP
NATIONAL WEATHER SERVICE SAN JUAN PR
100 AM AST WED JUN 29 2016

PRZ001-004-290600-
PUERTO RICO
  
CITY           SKY/WX    TMP DP  RH WIND       PRES   REMARKS
SAN JUAN LMM   PTCLDY    81  75  83 E5        30.03F                  
$$

PRZ006-007-290600-
U.S. VIRGIN ISLANDS
  
CITY           SKY/WX    TMP DP  RH WIND       PRES   REMARKS
CHARLOTTE AMA  PTCLDY    81  75  83 E8        30.03F                  
CHRISTIANSTED  CLEAR     79  73  83 NE5       30.04F                  
$$

HOURLY WEATHER ROUNDUP FOR THE NEWS MEDIA
  
CITY           SKY/WX    TMP DP  RH WIND       PRES   REMARKS
ORLANDO        CLOUDY    81  75  82 SW5       30.00S                  
NEW YORK       CLOUDY    71  68  90 SW7       29.88  FOG              
NEWARK         RAIN      70  68  93 CALM      29.87F                  
CHICAGO        CLEAR     61  52  72 N3        30.12S                  
HARTFORD       CLOUDY    70  66  87 SW9       29.91F                  
BOSTON         CLOUDY    70  66  87 S7        29.90F                  
DALLAS         PTCLDY    82  67  60 SE3       30.03S                  
PHILADELPHIA   CLOUDY    75  71  87 NE5       29.88                   
LOS ANGELES    CLOUDY    66  63  90 W3        29.92R                  
WASHINGTON DC  FAIR      67  65  93 SW3       29.91F                  

Return to Home page


Western Regional Climate Center, wrcc@dri.edu